Home > Weather > Boise > Past weeks

Flag for USA Past Weather in Boise, Idaho, USA — Yesterday and Last 2 Weeks

Now
72 °F

Passing clouds.


Feels Like: 77 °F
Forecast: 68 / 98 °F
Wind: 7 mph from Southwest

Location: Boise Air Terminal

Current Time: Jun 30, 2016 at 8:15:28 AM

Latest Report: Jun 30, 2016 at 7:53 AM


Visibility: 10 mi

Pressure: 29.87 "Hg (27.16 "Hg at 822m altitude)

Humidity: 44%

Dew Point: 49 °F

Location of BoiseLocation

Past Weather in Boise — Graph

°F

Boise Temperature Yesterday

Maximum temperature yesterday: 101 °F (at 4:53 PM)
Minimum temperature yesterday: 66 °F (at 5:53 AM)
Average temperature yesterday: 84 °F

High & Low Weather Summary for the Past Weeks

 TemperatureHumidityPressure
High101 °F (Jun 29, 4:53 PM)90% (Jun 16, 3:53 AM)30.34 "Hg (Jun 16, 3:53 AM)
Low44 °F (Jun 19, 6:53 AM)8% (Jun 27, 4:53 PM)29.72 "Hg (Jun 22, 9:53 PM)
Average71 °F33%29.98 "Hg
* Reported Jun 15 6:53 AM — Jun 30 6:53 AM, Boise, Weather by CustomWeather, © 2016

Note: Actual official high and low records may vary slightly from our data, if they occured in-between our weather recording intervals... More about our weather records

Advertising

Boise Weather History for the Previous 24 Hours

Scroll right to see more
 ConditionsComfort  
Time TempWeatherWind HumidityBarometerVisibility
6:53 AM
Thu, Jun 30
70 °FPassing clouds.5 mph49%29.85 "Hg10 mi
5:53 AM71 °FPassing clouds.6 mph47%29.83 "Hg10 mi
4:53 AM73 °FClear.3 mph44%29.82 "Hg10 mi
3:53 AM74 °FPassing clouds.8 mph43%29.82 "Hg10 mi
2:53 AM77 °FClear.13 mph39%29.81 "Hg10 mi
1:53 AM88 °FClear.7 mph18%29.76 "Hg10 mi
1:00 AM85 °FClear.16 mph26%29.91 "Hg10 mi
11:53 PM
Wed, Jun 29
85 °FHaze.33 mph28%29.80 "Hg4 mi
10:53 PM87 °FSunny.3 mph23%29.75 "Hg10 mi
9:53 PM89 °FSunny.No wind20%29.75 "Hg10 mi
8:53 PM92 °FSunny.9 mph18%29.75 "Hg10 mi
7:53 PM97 °FSunny.10 mph16%29.75 "Hg10 mi
6:53 PM100 °FSunny.7 mph14%29.75 "Hg10 mi
5:53 PM101 °FSunny.7 mph13%29.76 "Hg10 mi
4:53 PM101 °FSunny.6 mph13%29.78 "Hg10 mi
3:53 PM98 °FSunny.6 mph16%29.81 "Hg10 mi
2:53 PM94 °FSunny.5 mph19%29.84 "Hg10 mi
1:53 PM93 °FSunny.5 mph20%29.86 "Hg10 mi
12:53 PM90 °FSunny.8 mph20%29.88 "Hg10 mi
11:53 AM86 °FSunny.5 mph26%29.90 "Hg10 mi
10:53 AM84 °FSunny.6 mph29%29.90 "Hg10 mi
9:53 AM80 °FSunny.No wind31%29.91 "Hg10 mi
8:53 AM74 °FSunny.No wind38%29.91 "Hg10 mi
Weather by CustomWeather, © 2016

See weather overviewHow to use our weather pages